User: anonymous   Login
Location: Unspecified
(0.0000°N, 0.0000°E)
Time: 19:16:43
(UTC+00:00)
Language:

OPTUS 1C - Orbit

View from above orbital plane
View from above orbital plane
View from above satellite
View from above satellite

Ground track
Ground track

The orbit data is extracted from the following two-line orbital elements,

1 27831U 03028B   18170.87491809 -.00000163 +00000-0 +00000-0 0  9998
2 27831 000.0513 221.7511 0003466 242.2642 274.9901 01.00270954023782
Epoch (UTC): 19 June 2018 20:59:52
Eccentricity: 0.0003466
inclination: 0.0513°
perigee height: 35772 km
apogee height: 35801 km
right ascension of ascending node: 221.7511°
argument of perigee: 242.2642°
revolutions per day: 1.00270954
mean anomaly at epoch: 274.9901°
orbit number at epoch: 2378

The dashed part of the orbit path shows where the satellite is in the earth's shadow,  

DLR